TimeCST,TemperatureF,Dew PointF,Humidity,Sea Level PressureIn,VisibilityMPH,Wind Direction,Wind SpeedMPH,Gust SpeedMPH,PrecipitationIn,Events,Conditions,WindDirDegrees,DateUTC
12:15 AM,46.4,26.6,46,30.31,10.0,Calm,Calm,-,N/A,,Clear,0,2013-02-17 06:15:00
12:35 AM,44.6,26.6,49,30.31,10.0,Calm,Calm,-,N/A,,Clear,0,2013-02-17 06:35:00
12:55 AM,46.4,23.0,40,30.31,10.0,Calm,Calm,-,N/A,,Clear,0,2013-02-17 06:55:00
1:15 AM,46.4,23.0,40,30.31,10.0,Calm,Calm,-,N/A,,Clear,0,2013-02-17 07:15:00
1:35 AM,46.4,21.2,37,30.31,10.0,NNE,3.5,-,N/A,,Clear,20,2013-02-17 07:35:00
1:55 AM,46.4,23.0,40,30.31,10.0,ENE,3.5,-,N/A,,Clear,70,2013-02-17 07:55:00
2:15 AM,46.4,23.0,40,30.31,10.0,ENE,3.5,-,N/A,,Clear,70,2013-02-17 08:15:00
2:35 AM,46.4,21.2,37,30.31,10.0,ENE,5.8,-,N/A,,Clear,60,2013-02-17 08:35:00
2:55 AM,44.6,21.2,39,30.31,10.0,NE,6.9,-,N/A,,Clear,50,2013-02-17 08:55:00
3:15 AM,44.6,21.2,39,30.31,10.0,NE,5.8,-,N/A,,Clear,50,2013-02-17 09:15:00
3:35 AM,42.8,21.2,42,30.32,10.0,NE,6.9,-,N/A,,Clear,50,2013-02-17 09:35:00
3:55 AM,42.8,21.2,42,30.31,10.0,NE,9.2,-,N/A,,Clear,50,2013-02-17 09:55:00
4:15 AM,42.8,21.2,42,30.32,10.0,NE,6.9,-,N/A,,Clear,40,2013-02-17 10:15:00
4:35 AM,41.0,23.0,49,30.32,10.0,NE,5.8,-,N/A,,Clear,50,2013-02-17 10:35:00
4:55 AM,41.0,24.8,53,30.32,10.0,ENE,4.6,-,N/A,,Clear,60,2013-02-17 10:55:00
5:15 AM,41.0,24.8,53,30.32,10.0,ENE,5.8,-,N/A,,Clear,70,2013-02-17 11:15:00
5:35 AM,41.0,26.6,57,30.32,10.0,East,4.6,-,N/A,,Clear,80,2013-02-17 11:35:00
5:55 AM,41.0,26.6,57,30.32,10.0,ENE,3.5,-,N/A,,Clear,70,2013-02-17 11:55:00
6:15 AM,42.8,28.4,57,30.33,10.0,East,5.8,-,N/A,,Clear,90,2013-02-17 12:15:00
6:35 AM,42.8,30.2,61,30.33,10.0,East,9.2,-,N/A,,Clear,100,2013-02-17 12:35:00
6:55 AM,42.8,30.2,61,30.33,10.0,East,4.6,-,N/A,,Clear,90,2013-02-17 12:55:00
7:15 AM,42.8,30.2,61,30.34,10.0,SSE,4.6,-,N/A,,Clear,150,2013-02-17 13:15:00
7:35 AM,42.8,28.4,57,30.35,10.0,SSE,6.9,-,N/A,,Clear,150,2013-02-17 13:35:00
7:55 AM,44.6,28.4,53,30.36,10.0,SE,4.6,-,N/A,,Clear,130,2013-02-17 13:55:00
8:15 AM,44.6,28.4,53,30.37,10.0,SE,6.9,-,N/A,,Clear,140,2013-02-17 14:15:00
8:35 AM,46.4,28.4,50,30.37,10.0,SE,4.6,-,N/A,,Clear,140,2013-02-17 14:35:00
8:55 AM,48.2,26.6,43,30.38,10.0,SSE,4.6,-,N/A,,Clear,160,2013-02-17 14:55:00
9:15 AM,48.2,26.6,43,30.38,10.0,SSE,5.8,-,N/A,,Clear,150,2013-02-17 15:15:00
9:35 AM,51.8,28.4,41,30.38,10.0,SSE,4.6,-,N/A,,Clear,150,2013-02-17 15:35:00
9:55 AM,51.8,28.4,41,30.38,10.0,SSE,6.9,-,N/A,,Clear,150,2013-02-17 15:55:00
10:15 AM,53.6,26.6,35,30.38,10.0,SSE,5.8,-,N/A,,Clear,160,2013-02-17 16:15:00
10:35 AM,53.6,26.6,35,30.38,10.0,South,3.5,-,N/A,,Clear,170,2013-02-17 16:35:00
10:55 AM,55.4,26.6,33,30.38,10.0,SSE,5.8,-,N/A,,Clear,150,2013-02-17 16:55:00
11:15 AM,55.4,26.6,33,30.38,10.0,East,4.6,-,N/A,,Clear,80,2013-02-17 17:15:00
11:35 AM,55.4,26.6,33,30.37,10.0,ENE,4.6,-,N/A,,Clear,70,2013-02-17 17:35:00
11:55 AM,57.2,28.4,33,30.36,10.0,SSE,4.6,-,N/A,,Clear,160,2013-02-17 17:55:00
12:15 PM,57.2,28.4,33,30.35,10.0,SE,4.6,-,N/A,,Clear,130,2013-02-17 18:15:00
12:35 PM,59.0,28.4,31,30.33,9.0,South,5.8,-,N/A,,Clear,190,2013-02-17 18:35:00
12:55 PM,59.0,28.4,31,30.32,10.0,South,5.8,-,N/A,,Clear,170,2013-02-17 18:55:00
1:15 PM,60.8,30.2,31,30.31,10.0,South,9.2,-,N/A,,Clear,170,2013-02-17 19:15:00
1:35 PM,60.8,30.2,31,30.30,10.0,SSE,6.9,-,N/A,,Clear,160,2013-02-17 19:35:00
1:55 PM,60.8,30.2,31,30.29,10.0,South,6.9,-,N/A,,Clear,170,2013-02-17 19:55:00
2:15 PM,60.8,32.0,34,30.28,10.0,South,5.8,-,N/A,,Clear,170,2013-02-17 20:15:00
2:35 PM,62.6,30.2,30,30.28,10.0,SSE,12.7,-,N/A,,Clear,160,2013-02-17 20:35:00
2:55 PM,60.8,33.8,36,30.27,10.0,South,9.2,-,N/A,,Clear,170,2013-02-17 20:55:00
3:15 PM,60.8,32.0,34,30.27,10.0,South,8.1,-,N/A,,Clear,170,2013-02-17 21:15:00
3:35 PM,60.8,33.8,36,30.26,10.0,SE,8.1,-,N/A,,Clear,130,2013-02-17 21:35:00
3:55 PM,60.8,33.8,36,30.26,10.0,SSE,10.4,-,N/A,,Clear,160,2013-02-17 21:55:00
4:15 PM,60.8,32.0,34,30.26,10.0,SSE,8.1,-,N/A,,Clear,160,2013-02-17 22:15:00
4:35 PM,60.8,32.0,34,30.25,10.0,SSE,11.5,-,N/A,,Clear,160,2013-02-17 22:35:00
4:55 PM,59.0,32.0,36,30.25,10.0,South,8.1,-,N/A,,Clear,180,2013-02-17 22:55:00
5:15 PM,57.2,32.0,38,30.26,10.0,South,6.9,-,N/A,,Clear,180,2013-02-17 23:15:00
5:35 PM,59.0,33.8,39,30.26,10.0,South,9.2,-,N/A,,Clear,190,2013-02-17 23:35:00
5:55 PM,57.2,33.8,41,30.27,10.0,SSE,8.1,-,N/A,,Clear,160,2013-02-17 23:55:00
6:15 PM,55.4,33.8,44,30.27,10.0,South,6.9,-,N/A,,Clear,170,2013-02-18 00:15:00
6:35 PM,55.4,33.8,44,30.27,10.0,SSE,8.1,-,N/A,,Clear,160,2013-02-18 00:35:00
6:55 PM,55.4,33.8,44,30.27,10.0,SSE,6.9,-,N/A,,Clear,160,2013-02-18 00:55:00
7:15 PM,53.6,33.8,47,30.27,10.0,SSE,5.8,-,N/A,,Clear,160,2013-02-18 01:15:00
7:35 PM,53.6,33.8,47,30.27,10.0,SSE,9.2,-,N/A,,Clear,150,2013-02-18 01:35:00
7:55 PM,53.6,35.6,51,30.28,10.0,South,6.9,-,N/A,,Clear,170,2013-02-18 01:55:00
8:15 PM,53.6,35.6,51,30.28,10.0,SSE,8.1,-,N/A,,Clear,150,2013-02-18 02:15:00
8:35 PM,53.6,35.6,51,30.28,10.0,SSE,5.8,-,N/A,,Clear,160,2013-02-18 02:35:00
8:55 PM,51.8,37.4,58,30.28,10.0,SSE,5.8,-,N/A,,Clear,150,2013-02-18 02:55:00
9:15 PM,51.8,37.4,58,30.28,10.0,SSE,4.6,-,N/A,,Clear,150,2013-02-18 03:15:00
9:35 PM,51.8,35.6,54,30.28,10.0,SSE,3.5,-,N/A,,Clear,160,2013-02-18 03:35:00
9:55 PM,51.8,35.6,54,30.28,10.0,Calm,Calm,-,N/A,,Clear,0,2013-02-18 03:55:00
10:15 PM,51.8,35.6,54,30.27,10.0,East,4.6,-,N/A,,Clear,90,2013-02-18 04:15:00
10:35 PM,51.8,35.6,54,30.27,10.0,SE,3.5,-,N/A,,Clear,140,2013-02-18 04:35:00
10:55 PM,51.8,35.6,54,30.27,10.0,Calm,Calm,-,N/A,,Clear,0,2013-02-18 04:55:00
11:15 PM,51.8,35.6,54,30.26,10.0,Calm,Calm,-,N/A,,Clear,0,2013-02-18 05:15:00
11:35 PM,51.8,35.6,54,30.26,10.0,South,5.8,-,N/A,,Clear,170,2013-02-18 05:35:00
11:55 PM,51.8,35.6,54,30.26,10.0,South,4.6,-,N/A,,Clear,170,2013-02-18 05:55:00